Patterson, LA

8:56 AM CDT on August 30, 2016 (GMT -0500)
Williams Memorial

Weather History for KPTN - November, 2013

Change the Weather History Date:

Thursday, November 7, 2013

  Actual Average Record
Temperature  
Mean Temperature 58 °F -  
Max Temperature 69 °F 71 °F 84 °F (2005)
Min Temperature 48 °F 52 °F 39 °F (2010)
Degree Days  
Heating Degree Days 6    
Growing Degree Days 8 (Base 50)    
Moisture  
Dew Point 50 °F    
Average Humidity 72    
Maximum Humidity 94    
Minimum Humidity 42    
Precipitation  
Precipitation 0.00 in - - ()
Sea Level Pressure  
Sea Level Pressure 30.25 in    
Wind  
Wind Speed 12 mph (North)    
Max Wind Speed 20 mph    
Max Gust Speed 25 mph    
Visibility 10 miles    
Events      
Averages and records for this station are not official NWS values.
T = Trace of Precipitation, MM = Missing Value Source: NWS Daily Summary

Daily Weather History Graph

Daily Weather History Graph

Search for Another Location

Airport or City:

Trip Planner

Search our weather history database for the weather conditions in past years. The results will help you decide how hot, cold, wet, or windy it might be!

Date:

Astronomy

Nov. 07, 2013 Rise Set
Actual Time 6:23 AM CST 5:14 PM CST
Civil Twilight 5:58 AM CST 5:38 PM CST
Nautical Twilight 5:30 AM CST 6:07 PM CST
Astronomical Twilight 5:02 AM CST 6:35 PM CST
Moon 10:28 AM CST (11/7) 9:28 PM CST (11/7)
Length of Visible Light 11h 40m
Length of Day
10h 50m
Waxing Crescent, 23% of the Moon is Illuminated
Nov 7
Waxing Crescent
Nov 9
First Quarter
Nov 17
Full
Nov 25
Last Quarter
Dec 2
New

Hourly Weather History & Observations

Time (CST) Temp. Dew Point Humidity Pressure Visibility Wind Dir Wind Speed Gust Speed Precip Events Conditions
12:15 AM 69.8 °F 66.2 °F 88% 30.14 in 10.0 mi NNW 10.4 mph - N/A   Overcast
12:35 AM 69.8 °F 66.2 °F 88% 30.14 in 10.0 mi NNW 10.4 mph - N/A   Overcast
12:55 AM 69.8 °F 66.2 °F 88% 30.14 in 10.0 mi NNW 13.8 mph 18.4 mph N/A   Overcast
1:15 AM 68.0 °F 64.4 °F 88% 30.14 in 10.0 mi North 11.5 mph - N/A   Overcast
1:35 AM 66.2 °F 64.4 °F 94% 30.14 in 10.0 mi North 10.4 mph - N/A   Overcast
1:55 AM 66.2 °F 64.4 °F 94% 30.14 in 10.0 mi North 9.2 mph - N/A   Overcast
2:15 AM 68.0 °F 64.4 °F 88% 30.14 in 10.0 mi North 13.8 mph 19.6 mph N/A   Overcast
2:35 AM 66.2 °F 64.4 °F 94% 30.14 in 10.0 mi North 10.4 mph - N/A   Overcast
2:55 AM 66.2 °F 64.4 °F 94% 30.14 in 10.0 mi North 12.7 mph - N/A   Overcast
3:15 AM 66.2 °F 62.6 °F 88% 30.15 in 10.0 mi North 10.4 mph - N/A   Overcast
3:35 AM 64.4 °F 62.6 °F 94% 30.15 in 6.0 mi North 13.8 mph 18.4 mph N/A   Overcast
3:55 AM 64.4 °F 60.8 °F 88% 30.16 in 10.0 mi North 9.2 mph - N/A   Overcast
4:15 AM 62.6 °F 60.8 °F 94% 30.17 in 10.0 mi North 12.7 mph 23.0 mph N/A   Overcast
4:35 AM 62.6 °F 60.8 °F 94% 30.18 in 10.0 mi North 13.8 mph 20.7 mph N/A   Overcast
4:55 AM 62.6 °F 59.0 °F 88% - 10.0 mi North 15.0 mph 21.9 mph N/A   Overcast
5:15 AM 62.6 °F 57.2 °F 82% 30.20 in 10.0 mi North 13.8 mph 24.2 mph N/A   Overcast
5:35 AM 62.6 °F 57.2 °F 82% 30.20 in 10.0 mi North 10.4 mph - N/A   Overcast
5:55 AM 62.6 °F 59.0 °F 88% 30.21 in 10.0 mi North 15.0 mph 19.6 mph N/A   Overcast
6:15 AM 60.8 °F 57.2 °F 88% 30.22 in 10.0 mi North 11.5 mph - N/A   Overcast
6:35 AM 60.8 °F 57.2 °F 88% 30.23 in 10.0 mi North 15.0 mph 21.9 mph N/A   Overcast
6:55 AM 59.0 °F 55.4 °F 88% 30.25 in 10.0 mi North 16.1 mph 20.7 mph N/A   Overcast
7:15 AM 57.2 °F 53.6 °F 88% 30.25 in 10.0 mi North 12.7 mph 23.0 mph N/A   Overcast
7:35 AM 57.2 °F 53.6 °F 88% 30.26 in 10.0 mi NNE 12.7 mph 20.7 mph N/A   Overcast
7:55 AM 57.2 °F 51.8 °F 82% 30.27 in 10.0 mi NNE 12.7 mph 18.4 mph N/A   Overcast
8:15 AM 57.2 °F 51.8 °F 82% - 10.0 mi North 11.5 mph - N/A   Overcast
8:35 AM 57.2 °F 53.6 °F 88% 30.28 in 10.0 mi North 12.7 mph - N/A   Overcast
8:55 AM 57.2 °F 53.6 °F 88% - 10.0 mi North 16.1 mph 20.7 mph N/A   Overcast
9:15 AM 57.2 °F 51.8 °F 82% 30.30 in 10.0 mi NNE 17.3 mph 21.9 mph N/A   Overcast
9:35 AM 59.0 °F 51.8 °F 77% 30.30 in 10.0 mi North 15.0 mph 21.9 mph N/A   Overcast
9:55 AM 59.0 °F 51.8 °F 77% 30.31 in 10.0 mi North 13.8 mph 20.7 mph N/A   Overcast
10:15 AM 57.2 °F 48.2 °F 72% 30.31 in 10.0 mi North 16.1 mph 24.2 mph N/A   Mostly Cloudy
10:35 AM 59.0 °F 48.2 °F 67% 30.31 in 10.0 mi North 16.1 mph 19.6 mph N/A   Scattered Clouds
10:55 AM 60.8 °F 48.2 °F 63% 30.31 in 10.0 mi NNE 15.0 mph 23.0 mph N/A   Clear
11:15 AM 59.0 °F 46.4 °F 63% 30.30 in 10.0 mi North 15.0 mph 21.9 mph N/A   Clear
11:35 AM 60.8 °F 48.2 °F 63% 30.29 in 10.0 mi North 16.1 mph 20.7 mph N/A   Clear
11:55 AM 60.8 °F 46.4 °F 59% 30.28 in 10.0 mi North 12.7 mph - N/A   Clear
12:15 PM 62.6 °F 46.4 °F 55% 30.28 in 10.0 mi North 19.6 mph 23.0 mph N/A   Clear
12:35 PM 62.6 °F 46.4 °F 55% 30.26 in 10.0 mi NNE 16.1 mph 24.2 mph N/A   Clear
12:55 PM 62.6 °F 46.4 °F 55% 30.26 in 10.0 mi NNE 16.1 mph 20.7 mph N/A   Clear
1:15 PM 64.4 °F 42.8 °F 45% 30.25 in 10.0 mi North 18.4 mph 25.3 mph N/A   Clear
1:35 PM 64.4 °F 42.8 °F 45% 30.25 in 10.0 mi North 18.4 mph - N/A   Clear
1:55 PM 64.4 °F 42.8 °F 45% 30.25 in 10.0 mi NNE 17.3 mph 24.2 mph N/A   Clear
2:15 PM 64.4 °F 42.8 °F 45% 30.25 in 10.0 mi NNE 19.6 mph 24.2 mph N/A   Clear
2:35 PM 64.4 °F 42.8 °F 45% 30.25 in 10.0 mi NNE 18.4 mph 23.0 mph N/A   Clear
2:55 PM 64.4 °F 42.8 °F 45% 30.25 in 10.0 mi North 16.1 mph 21.9 mph N/A   Clear
3:15 PM 64.4 °F 41.0 °F 42% 30.25 in 10.0 mi North 18.4 mph 24.2 mph N/A   Clear
3:35 PM 64.4 °F 42.8 °F 45% 30.25 in 10.0 mi North 13.8 mph - N/A   Clear
3:55 PM 62.6 °F 42.8 °F 48% 30.25 in 10.0 mi NNE 15.0 mph 18.4 mph N/A   Clear
4:15 PM 62.6 °F 42.8 °F 48% 30.26 in 10.0 mi NNE 10.4 mph 16.1 mph N/A   Clear
4:35 PM 62.6 °F 42.8 °F 48% 30.27 in 10.0 mi North 10.4 mph - N/A   Clear
4:55 PM 60.8 °F 42.8 °F 52% 30.27 in 10.0 mi North 9.2 mph - N/A   Clear
5:15 PM 59.0 °F 42.8 °F 55% 30.28 in 10.0 mi North 8.1 mph - N/A   Clear
5:35 PM 57.2 °F 42.8 °F 59% 30.28 in 10.0 mi North 8.1 mph - N/A   Clear
5:55 PM 57.2 °F 42.8 °F 59% 30.29 in 10.0 mi North 5.8 mph - N/A   Clear
6:15 PM 55.4 °F 42.8 °F 63% 30.30 in 10.0 mi North 6.9 mph - N/A   Clear
6:35 PM 55.4 °F 42.8 °F 63% 30.31 in 10.0 mi North 6.9 mph - N/A   Clear
6:55 PM 55.4 °F 42.8 °F 63% 30.32 in 10.0 mi North 8.1 mph - N/A   Clear
7:15 PM 53.6 °F 42.8 °F 67% 30.33 in 10.0 mi North 6.9 mph - N/A   Clear
7:35 PM 53.6 °F 42.8 °F 67% 30.33 in 10.0 mi North 8.1 mph - N/A   Clear
7:55 PM 53.6 °F 42.8 °F 67% 30.33 in 10.0 mi North 8.1 mph - N/A   Clear
8:15 PM 53.6 °F 42.8 °F 67% - 10.0 mi North 6.9 mph - N/A   Clear
8:35 PM 51.8 °F 42.8 °F 71% - 10.0 mi NNE 6.9 mph - N/A   Clear
8:55 PM 51.8 °F 42.8 °F 71% - 10.0 mi North 5.8 mph - N/A   Clear
9:15 PM 51.8 °F 42.8 °F 71% 30.35 in 10.0 mi NNE 4.6 mph - N/A   Clear
9:35 PM 50.0 °F 42.8 °F 76% - 10.0 mi NNE 5.8 mph - N/A   Clear
9:55 PM 50.0 °F 42.8 °F 76% 30.35 in 10.0 mi NNE 5.8 mph - N/A   Clear
10:15 PM 48.2 °F 41.0 °F 76% - 10.0 mi NNE 6.9 mph - N/A   Clear
10:35 PM 50.0 °F 41.0 °F 71% - 10.0 mi NNE 10.4 mph - N/A   Clear
10:55 PM 50.0 °F 39.2 °F 66% - 10.0 mi NNE 10.4 mph - N/A   Clear
11:15 PM 50.0 °F 39.2 °F 66% - 10.0 mi NNE 10.4 mph 16.1 mph N/A   Clear
11:35 PM 48.2 °F 39.2 °F 71% - 10.0 mi NNE 11.5 mph - N/A   Clear
11:55 PM 48.2 °F 39.2 °F 71% - 10.0 mi NNE 11.5 mph - N/A   Clear